Buies Creek, NC

7:40 PM EDT on September 26, 2016 (GMT -0400)
Harnett County

Weather History for KHRJ - January, 2014

Change the Weather History Date:

Sunday, January 12, 2014

  Actual Average Record
Temperature  
Mean Temperature 48 °F -  
Max Temperature 58 °F 50 °F 76 °F (2013)
Min Temperature 38 °F 26 °F 8 °F (1981)
Degree Days  
Heating Degree Days 16    
Moisture  
Dew Point 35 °F    
Average Humidity 60    
Maximum Humidity 98    
Minimum Humidity 31    
Precipitation  
Precipitation 0.00 in - - ()
Sea Level Pressure  
Sea Level Pressure 30.02 in    
Wind  
Wind Speed 5 mph (West)    
Max Wind Speed 10 mph    
Max Gust Speed 18 mph    
Visibility 10 miles    
Events Rain    
Averages and records for this station are not official NWS values.
T = Trace of Precipitation, MM = Missing Value Source: NWS Daily Summary

Daily Weather History Graph

Daily Weather History Graph

Search for Another Location

Airport or City:

Trip Planner

Search our weather history database for the weather conditions in past years. The results will help you decide how hot, cold, wet, or windy it might be!

Date:

Astronomy

Jan. 12, 2014 Rise Set
Actual Time 7:23 AM EST 5:22 PM EST
Civil Twilight 6:56 AM EST 5:50 PM EST
Nautical Twilight 6:24 AM EST 6:22 PM EST
Astronomical Twilight 5:54 AM EST 6:52 PM EST
Moon 2:48 PM EST (1/12) 4:22 AM EST (1/12)
Length of Visible Light 10h 54m
Length of Day
9h 58m
Waxing Gibbous, 89% of the Moon is Illuminated
Jan 12
Waxing Gibbous
Jan 15
Full
Jan 24
Last Quarter
Jan 30
New
Feb 6
First Quarter

Hourly Weather History & Observations

Time (EST) Temp. Windchill Dew Point Humidity Pressure Visibility Wind Dir Wind Speed Gust Speed Precip Events Conditions
12:15 AM 54.7 °F - 54.1 °F 98% 29.71 in 10.0 mi SW 6.9 mph - N/A   Mostly Cloudy
12:35 AM 55.6 °F - 54.0 °F 94% 29.71 in 10.0 mi SW 6.9 mph - N/A   Overcast
12:55 AM 55.8 °F - 54.1 °F 94% 29.71 in 10.0 mi West 5.8 mph - N/A Rain Light Rain
1:15 AM 55.4 °F - 50.2 °F 83% 29.72 in 10.0 mi West 3.5 mph - N/A   Mostly Cloudy
1:35 AM 54.0 °F - 49.8 °F 86% 29.73 in 10.0 mi West 3.5 mph - N/A   Clear
1:55 AM 53.1 °F - 47.7 °F 82% 29.74 in 10.0 mi WNW 4.6 mph - N/A   Clear
2:15 AM 52.7 °F - 44.6 °F 74% 29.74 in 10.0 mi WNW 6.9 mph - N/A   Clear
2:35 AM 52.0 °F - 42.8 °F 71% 29.76 in 10.0 mi West 4.6 mph - N/A   Clear
2:55 AM 51.1 °F - 43.3 °F 75% 29.77 in 10.0 mi WNW 4.6 mph - N/A   Clear
3:15 AM 50.7 °F - 43.5 °F 76% 29.78 in 10.0 mi WNW 6.9 mph - N/A   Clear
3:35 AM 49.8 °F - 42.4 °F 76% 29.79 in 10.0 mi WNW 5.8 mph - N/A   Clear
3:55 AM 49.3 °F - 41.4 °F 74% 29.80 in 10.0 mi WNW 5.8 mph - N/A   Clear
4:15 AM 49.1 °F - 40.1 °F 71% 29.82 in 10.0 mi West 6.9 mph - N/A   Clear
4:35 AM 49.1 °F - 38.8 °F 68% 29.83 in 10.0 mi WNW 5.8 mph - N/A   Clear
4:55 AM 48.2 °F - 37.9 °F 68% 29.85 in 10.0 mi WNW 6.9 mph - N/A   Clear
5:15 AM 47.7 °F - 37.6 °F 68% 29.87 in 10.0 mi West 4.6 mph - N/A   Clear
5:35 AM 47.3 °F - 37.6 °F 69% 29.88 in 10.0 mi West 5.8 mph - N/A   Clear
5:55 AM 46.9 °F - 36.5 °F 67% 29.90 in 10.0 mi West 5.8 mph - N/A   Clear
6:15 AM 46.6 °F - 35.6 °F 66% 29.92 in 10.0 mi West 4.6 mph - N/A   Clear
6:35 AM 45.7 °F 44.4 °F 34.7 °F 65% 29.94 in 10.0 mi West 3.5 mph - N/A   Clear
6:55 AM 45.5 °F 44.2 °F 33.6 °F 63% 29.94 in 10.0 mi West 3.5 mph - N/A   Clear
7:15 AM 45.1 °F 42.8 °F 32.5 °F 61% 29.96 in 10.0 mi WNW 4.6 mph - N/A   Clear
7:35 AM 43.7 °F 42.1 °F 32.9 °F 66% 29.97 in 10.0 mi WNW 3.5 mph - N/A   Clear
7:55 AM 44.6 °F 42.2 °F 32.9 °F 64% 29.98 in 10.0 mi NW 4.6 mph - N/A   Clear
8:15 AM 45.1 °F - 32.9 °F 62% 30.00 in 10.0 mi Calm Calm - N/A   Clear
8:35 AM 46.4 °F 45.2 °F 33.6 °F 61% 30.02 in 10.0 mi WSW 3.5 mph - N/A   Clear
8:55 AM 47.1 °F - 33.1 °F 58% 30.03 in 10.0 mi West 4.6 mph - N/A   Clear
9:15 AM 48.2 °F - 32.4 °F 54% 30.05 in 10.0 mi West 3.5 mph - N/A   Clear
9:35 AM 49.6 °F - 32.4 °F 51% 30.06 in 10.0 mi Calm Calm - N/A   Clear
9:55 AM 50.2 °F - 32.5 °F 51% 30.07 in 10.0 mi WSW 3.5 mph - N/A   Clear
10:15 AM 51.3 °F - 32.9 °F 50% 30.08 in 10.0 mi WSW 6.9 mph - N/A   Clear
10:35 AM 52.3 °F - 32.2 °F 46% 30.09 in 10.0 mi WNW 4.6 mph - N/A   Clear
10:55 AM 52.9 °F - 30.0 °F 42% 30.08 in 10.0 mi NW 9.2 mph 18.4 mph N/A   Clear
11:15 AM 54.0 °F - 30.4 °F 41% 30.08 in 10.0 mi West 10.4 mph - N/A   Clear
11:35 AM 54.1 °F - 29.1 °F 38% 30.08 in 10.0 mi West 10.4 mph - N/A   Clear
11:55 AM 54.5 °F - 28.9 °F 38% 30.07 in 10.0 mi WSW 9.2 mph - N/A   Clear
12:15 PM 55.0 °F - 28.2 °F 36% 30.07 in 10.0 mi WSW 8.1 mph 16.1 mph N/A   Clear
12:35 PM 55.8 °F - 30.2 °F 38% 30.07 in 10.0 mi West 3.5 mph - N/A   Clear
12:55 PM 55.9 °F - 28.4 °F 35% 30.06 in 10.0 mi WNW 8.1 mph 18.4 mph N/A   Clear
1:15 PM 56.5 °F - 30.0 °F 36% 30.06 in 10.0 mi West 8.1 mph 16.1 mph N/A   Clear
1:35 PM 57.0 °F - 30.4 °F 36% 30.06 in 10.0 mi WNW 6.9 mph - N/A   Clear
1:55 PM 57.2 °F - 29.8 °F 35% 30.06 in 10.0 mi West 4.6 mph 17.3 mph N/A   Clear
2:15 PM 57.6 °F - 29.8 °F 35% 30.06 in 10.0 mi WNW 9.2 mph - N/A   Clear
2:35 PM 58.1 °F - 28.6 °F 32% 30.07 in 10.0 mi WNW 9.2 mph - N/A   Clear
2:55 PM 58.3 °F - 29.1 °F 33% 30.07 in 10.0 mi WNW 9.2 mph - N/A   Clear
3:15 PM 58.6 °F - 28.8 °F 32% 30.08 in 10.0 mi WNW 10.4 mph - N/A   Clear
3:35 PM 58.6 °F - 28.2 °F 31% 30.08 in 10.0 mi West 3.5 mph - N/A   Clear
3:55 PM 58.6 °F - 28.8 °F 32% 30.09 in 10.0 mi West 4.6 mph - N/A   Clear
4:15 PM 58.3 °F - 28.8 °F 33% 30.10 in 10.0 mi West 6.9 mph - N/A   Clear
4:35 PM 57.7 °F - 28.0 °F 32% 30.11 in 10.0 mi WNW 5.8 mph - N/A   Clear
4:55 PM 56.5 °F - 28.9 °F 35% 30.12 in 10.0 mi Calm Calm - N/A   Clear
5:15 PM 55.4 °F - 29.3 °F 37% 30.12 in 10.0 mi Calm Calm - N/A   Clear
5:35 PM 54.9 °F - 30.2 °F 39% 30.13 in 10.0 mi Calm Calm - N/A   Clear
5:55 PM 52.5 °F - 32.0 °F 46% 30.14 in 10.0 mi Calm Calm - N/A   Clear
6:15 PM 48.7 °F - 34.5 °F 58% 30.15 in 10.0 mi Calm Calm - N/A   Clear
6:35 PM 48.2 °F - 34.9 °F 60% 30.16 in 10.0 mi Calm Calm - N/A   Clear
6:55 PM 47.3 °F - 35.2 °F 63% 30.16 in 10.0 mi Calm Calm - N/A   Clear
7:15 PM 47.1 °F - 34.5 °F 62% 30.16 in 10.0 mi Calm Calm - N/A   Clear
7:35 PM 45.7 °F - 35.2 °F 67% 30.17 in 10.0 mi Calm Calm - N/A   Clear
7:55 PM 46.0 °F - 34.2 °F 63% 30.17 in 10.0 mi Calm Calm - N/A   Clear
8:15 PM 44.1 °F - 35.4 °F 72% 30.17 in 10.0 mi Calm Calm - N/A   Clear
8:35 PM 44.6 °F - 34.7 °F 68% 30.18 in 10.0 mi Calm Calm - N/A   Clear
8:55 PM 42.1 °F - 35.2 °F 77% 30.19 in 10.0 mi Calm Calm - N/A   Clear
9:15 PM 43.5 °F - 35.4 °F 73% 30.19 in 10.0 mi Calm Calm - N/A   Clear
9:35 PM 41.4 °F - 35.6 °F 80% 30.19 in 10.0 mi Calm Calm - N/A   Clear
9:55 PM 40.5 °F - 35.8 °F 83% 30.19 in 10.0 mi Calm Calm - N/A   Clear
10:15 PM 40.1 °F - 35.8 °F 85% 30.20 in 10.0 mi Calm Calm - N/A   Clear
10:35 PM 39.6 °F - 35.4 °F 85% 30.19 in 10.0 mi Calm Calm - N/A   Clear
10:55 PM 39.4 °F - 35.6 °F 86% 30.19 in 10.0 mi Calm Calm - N/A   Clear
11:15 PM 39.2 °F - 35.6 °F 87% 30.19 in 10.0 mi Calm Calm - N/A   Clear
11:35 PM 39.2 °F - 35.4 °F 86% 30.19 in 10.0 mi Calm Calm - N/A   Clear
11:55 PM 38.3 °F - 36.9 °F 95% 30.19 in 10.0 mi Calm Calm - N/A   Clear